Location: Unspecified
(38.9820°N, 94.4650°W)
Time: 03:12:01
(UTC-06:00)

Okean 3 - Visible Passes

Search period start: 28 January 2015 00:00
Search period end: 07 February 2015 00:00
Orbit: 582 x 606 km, 82.5° (Epoch: 27 January)

Date Brightness Start Highest point End Pass type
(mag) Time Alt. Az. Time Alt. Az. Time Alt. Az.
28 Jan 3.8 19:16:54 10° N 19:20:21 47° NE 19:20:21 47° NE visible
28 Jan 6.7 20:56:50 10° WNW 20:57:15 10° WNW 20:57:15 10° WNW visible
29 Jan 3.4 19:26:28 10° N 19:30:49 89° E 19:35:05 10° S visible
30 Jan 5.3 18:01:18 10° NE 18:02:33 11° ENE 18:04:04 10° E visible
30 Jan 4.1 19:36:11 10° NNW 19:40:25 56° W 19:44:36 10° S visible
31 Jan 4.9 18:09:36 10° NNE 18:12:26 17° ENE 18:15:24 10° ESE visible
31 Jan 5.1 19:46:03 10° NNW 19:50:00 35° W 19:53:51 10° SSW visible
01 Feb 7.2 06:38:26 10° E 06:38:52 10° E 06:39:35 10° ENE visible
01 Feb 4.4 18:18:38 10° NNE 18:22:15 26° ENE 18:25:55 10° SE visible
01 Feb 5.9 19:56:08 10° NW 19:59:31 22° W 20:02:48 10° SW visible
02 Feb 6.6 06:45:45 10° SE 06:48:22 16° E 06:51:09 10° NE visible
02 Feb 3.9 18:27:55 10° N 18:32:01 41° ENE 18:36:03 10° SSE visible
02 Feb 6.6 20:06:37 10° NW 20:09:02 14° W 20:11:15 10° WSW visible
03 Feb 3.4 18:37:23 10° N 18:41:41 67° E 18:45:56 10° SSE visible
04 Feb 3.7 18:47:00 10° N 18:51:19 76° W 18:55:33 10° S visible
05 Feb 4.6 18:56:46 10° NNW 19:00:54 46° W 19:04:57 10° SSW visible
06 Feb 5.6 19:06:41 10° NNW 19:10:26 29° W 19:14:05 10° SSW visible
